Location: Unspecified
(0.0000°N, 0.0000°E)
Time: 03:26:33
(UTC+00:00)

USA 267 - Visible Passes

Search period start: 19 August 2019 00:00
Search period end: 29 August 2019 00:00
Orbit: 1101 x 1106 km, 123.0° (Epoch: 13 August)

Date Brightness Start Highest point End Pass type
(mag) Time Alt. Az. Time Alt. Az. Time Alt. Az.
19 Aug 3.2 03:43:51 10° SE 03:50:24 82° NE 03:50:40 80° NNE visible
19 Aug 4.7 05:29:47 10° SSW 05:33:02 14° SW 05:36:17 10° W visible
20 Aug 4.6 03:02:11 10° ESE 03:07:50 32° NE 03:07:59 32° NE visible
20 Aug 3.7 04:44:35 10° SSE 04:50:35 39° SW 04:55:30 15° WNW visible
21 Aug 5.8 02:23:49 10° ENE 02:25:25 11° NE 02:25:47 11° NE visible
21 Aug 3.2 04:01:26 10° SE 04:08:00 83° NE 04:13:22 16° NNW visible
22 Aug 4.7 03:19:44 10° ESE 03:25:25 32° NE 03:31:03 10° N visible
22 Aug 3.7 05:02:11 10° SSE 05:08:09 38° SW 05:14:08 10° WNW visible
23 Aug 5.9 02:41:16 10° ENE 02:43:00 11° NE 02:44:43 10° NE visible
23 Aug 3.2 04:19:00 10° SE 04:25:34 83° NE 04:32:07 10° NW visible
24 Aug 4.7 03:37:18 10° ESE 03:43:00 32° NE 03:48:39 10° N visible
24 Aug 3.7 05:19:46 10° SSE 05:25:44 38° SW 05:31:41 10° WNW visible
25 Aug 5.9 02:58:43 10° ENE 03:00:34 11° NE 03:02:24 10° NE visible
25 Aug 3.3 04:36:35 10° SE 04:43:09 84° NE 04:49:41 10° NW visible
26 Aug 4.8 03:54:51 10° ESE 04:00:35 33° NE 04:06:15 10° N visible
26 Aug 3.8 05:37:22 10° SSE 05:43:19 38° SW 05:49:15 10° WNW visible
27 Aug 5.9 03:16:12 10° ENE 03:18:09 11° NE 03:20:05 10° NNE visible
27 Aug 3.3 04:54:10 10° SE 05:00:43 85° NE 05:07:16 10° NW visible
27 Aug 5.7 18:17:10 10° N 18:22:05 23° NW 18:27:01 10° WSW visible
28 Aug 4.8 04:12:25 10° ESE 04:18:09 33° NE 04:23:51 10° N visible
